St. Augustine, FL

3:25 AM EDT on April 28, 2017 (GMT -0400)
Saint Augustine

Weather History for KSGJ - August, 2013

Change the Weather History Date:

Monday, August 12, 2013

  Actual Average Record
Temperature  
Mean Temperature 82 °F -  
Max Temperature 90 °F 85 °F 98 °F (2006)
Min Temperature 75 °F 71 °F 65 °F (1989)
Cooling Degree Days 18    
Growing Degree Days 32 (Base 50)    
Moisture  
Dew Point 75 °F    
Average Humidity 76    
Maximum Humidity 94    
Minimum Humidity 61    
Precipitation  
Precipitation 0.00 in - - ()
Sea Level Pressure  
Sea Level Pressure 30.09 in    
Wind  
Wind Speed 6 mph (SSE)    
Max Wind Speed 14 mph    
Max Gust Speed -    
Visibility 10 miles    
Events Thunderstorm    
Averages and records for this station are not official NWS values.
T = Trace of Precipitation, MM = Missing Value Source: NWS Daily Summary

Daily Weather History Graph

Daily Weather History Graph

Search for Another Location

Airport or City:

Trip Planner

Search our weather history database for the weather conditions in past years. The results will help you decide how hot, cold, wet, or windy it might be!

Date:

Astronomy

Aug. 12, 2013 Rise Set
Actual Time 6:51 AM EDT 8:09 PM EDT
Civil Twilight 6:25 AM EDT 8:34 PM EDT
Nautical Twilight 5:55 AM EDT 9:04 PM EDT
Astronomical Twilight 5:24 AM EDT 9:35 PM EDT
Moon 12:10 PM EDT (8/12) 11:32 PM EDT (8/12)
Length of Visible Light 14h 08m
Length of Day
13h 17m
Waxing Crescent, 31% of the Moon is Illuminated
Aug 12
Waxing Crescent
Aug 14
First Quarter
Aug 20
Full
Aug 28
Last Quarter
Sep 5
New

Hourly Weather History & Observations

Time (EDT) Temp. Heat Index Dew Point Humidity Pressure Visibility Wind Dir Wind Speed Gust Speed Precip Events Conditions
12:58 AM 79.0 °F - 75.0 °F 88% 30.14 in 10.0 mi SSW 3.5 mph - N/A   Clear
1:58 AM 79.0 °F - 75.0 °F 88% 30.13 in 10.0 mi SSW 4.6 mph - N/A   Clear
2:58 AM 77.0 °F - 73.9 °F 90% 30.13 in 10.0 mi SW 4.6 mph - N/A   Clear
3:58 AM 77.0 °F - 73.9 °F 90% 30.12 in 10.0 mi South 6.9 mph - N/A   Clear
4:58 AM 77.0 °F - 73.9 °F 90% 30.10 in 10.0 mi SSW 5.8 mph - N/A   Clear
5:58 AM 77.0 °F - 73.9 °F 90% 30.11 in 10.0 mi WSW 3.5 mph - N/A   Clear
6:58 AM 75.9 °F - 73.9 °F 94% 30.12 in 6.0 mi SSW 3.5 mph - N/A   Clear
7:58 AM 78.1 °F - 75.0 °F 90% 30.13 in 9.0 mi WSW 3.5 mph - N/A   Clear
8:58 AM 82.0 °F 87.9 °F 73.9 °F 76% 30.14 in 10.0 mi WSW 6.9 mph - N/A   Clear
9:58 AM 84.0 °F 92.6 °F 75.9 °F 76% 30.13 in 10.0 mi WNW 6.9 mph - N/A   Mostly Cloudy
10:58 AM 87.1 °F 97.3 °F 75.9 °F 69% 30.12 in 10.0 mi Variable 3.5 mph - N/A   Overcast
11:58 AM 89.1 °F 100.2 °F 75.9 °F 65% 30.11 in 10.0 mi NE 6.9 mph - N/A   Clear
12:58 PM 89.1 °F 99.1 °F 75.0 °F 63% 30.09 in 10.0 mi East 9.2 mph - N/A   Clear
1:58 PM 89.1 °F 100.2 °F 75.9 °F 65% 30.09 in 10.0 mi East 9.2 mph - N/A   Clear
2:32 PM 87.8 °F 97.6 °F 75.2 °F 66% 30.08 in 10.0 mi East 8.1 mph - N/A Thunderstorm Clear
2:47 PM 87.8 °F 97.6 °F 75.2 °F 66% 30.07 in 10.0 mi East 9.2 mph - N/A   Clear
2:58 PM 88.0 °F 97.5 °F 75.0 °F 65% 30.07 in 10.0 mi ESE 9.2 mph - N/A   Partly Cloudy
3:58 PM 89.1 °F 99.1 °F 75.0 °F 63% 30.05 in 10.0 mi ESE 8.1 mph - N/A   Clear
4:58 PM 90.0 °F 100.2 °F 75.0 °F 61% 30.04 in 10.0 mi SE 10.4 mph - N/A   Clear
5:58 PM 89.1 °F 99.1 °F 75.0 °F 63% 30.03 in 10.0 mi SE 10.4 mph - N/A   Clear
6:58 PM 86.0 °F 95.1 °F 75.0 °F 70% 30.03 in 10.0 mi SE 10.4 mph - N/A   Clear
7:58 PM 82.9 °F 89.4 °F 73.9 °F 74% 30.04 in 10.0 mi SSE 8.1 mph - N/A   Clear
8:58 PM 82.0 °F 87.9 °F 73.9 °F 76% 30.04 in 10.0 mi SSE 13.8 mph - N/A   Mostly Cloudy
9:58 PM 82.0 °F 87.4 °F 73.0 °F 74% 30.06 in 10.0 mi South 9.2 mph - N/A   Clear
10:58 PM 81.0 °F 85.8 °F 73.0 °F 77% 30.09 in 10.0 mi SSW 4.6 mph - N/A   Partly Cloudy
11:58 PM 80.1 °F 83.8 °F 72.0 °F 76% 30.06 in 10.0 mi South 4.6 mph - N/A   Scattered Clouds